Weather reports worldwide

Advertisment
Venezia/Tessera, Italy (16105): temperature & dewpoint: 18.11.2020 05:00:00 - 24.11.2020 05:00:00 (CET)Venezia/Tessera, Italy (16105): wind speed: 18.11.2020 05:00:00 - 24.11.2020 05:00:00 (CET)Venezia/Tessera, Italy (16105): wind direction: 18.11.2020 05:00:00 - 24.11.2020 05:00:00 (CET)Venezia/Tessera, Italy (16105): reduced air pressure: 18.11.2020 05:00:00 - 24.11.2020 05:00:00 (CET)Venezia/Tessera, Italy (16105): visibility: 18.11.2020 05:00:00 - 24.11.2020 05:00:00 (CET)Venezia/Tessera, Italy (16105): precipitation: 18.11.2020 05:00:00 - 24.11.2020 05:00:00 (CET)
Date & Time tt [°C] td [°C] ff [km/h] ff [kn] dd ppp [hPa] vv [km] rr [mm]
24.11.2020 05:00:00 3,0 -1,0 11 6 NNW - 10 -
24.11.2020 04:00:00 3,3 0,3 8 4 NNW 1028,0 10 0,0
24.11.2020 03:00:00 4,0 1,0 5 3 NNW - 10 -
24.11.2020 02:00:00 4,0 1,0 11 6 NNW - 10 -
24.11.2020 01:00:00 4,0 0,9 5 3 NNW 1028,8 10 -
24.11.2020 00:00:00 5,0 1,0 9 5 NNW - 10 -
23.11.2020 23:00:00 5,0 2,0 8 4 NNW - 10 -
23.11.2020 22:00:00 5,0 1,2 11 6 N 1028,8 10 0,0
23.11.2020 21:00:00 5,0 2,0 9 5 NNW - 10 -
23.11.2020 20:00:00 6,0 2,0 11 6 N - 10 -
23.11.2020 19:00:00 5,7 1,9 9 5 NNW 1028,4 10 -
23.11.2020 18:00:00 6,0 3,0 4 2 NNW - 10 -
23.11.2020 17:00:00 7,0 1,0 4 2 E - 10 -
23.11.2020 16:00:00 8,2 1,4 4 2 NE 1027,9 10 0,0
23.11.2020 15:00:00 9,0 0,0 5 3 E - 10 -
23.11.2020 14:00:00 9,0 0,0 8 4 E - 10 -
23.11.2020 13:00:00 8,3 -1,2 8 4 ENE 1028,1 10 -
23.11.2020 12:00:00 8,0 0,0 8 4 N - 10 -
23.11.2020 11:00:00 7,0 0,0 2 1 - - 10 -
23.11.2020 10:00:00 3,9 -1,2 9 5 NNW 1029,3 10 0,0
23.11.2020 09:00:00 2,0 0,0 2 1 - - 10 -
23.11.2020 08:00:00 0,0 -2,0 4 2 NW - 10 -
23.11.2020 07:00:00 -0,4 -1,8 5 3 N 1028,8 10 -
23.11.2020 06:00:00 0,0 -2,0 5 3 N - 9 -
23.11.2020 05:00:00 0,0 -2,0 4 2 N - 10 -
23.11.2020 04:00:00 0,9 -1,6 5 3 NNE 1029,2 10 0,0
23.11.2020 03:00:00 1,0 -1,0 4 2 NW - 10 -
23.11.2020 02:00:00 1,0 -1,0 5 3 NNW - 10 -
23.11.2020 01:00:00 1,5 -1,6 2 1 N 1030,0 10 -
23.11.2020 00:00:00 2,0 0,0 4 2 - - 10 -
22.11.2020 23:00:00 2,0 -2,0 4 2 - - 10 -
22.11.2020 22:00:00 2,8 -0,7 5 3 W 1030,6 10 0,0
22.11.2020 21:00:00 3,0 1,0 5 3 WSW - 10 -
22.11.2020 20:00:00 3,0 -1,0 5 3 W - 10 -
22.11.2020 19:00:00 5,8 -2,0 5 3 WNW 1030,5 10 -
22.11.2020 18:00:00 5,0 1,0 4 2 WNW - 10 -
22.11.2020 17:00:00 7,0 -2,0 4 2 - - 10 -
22.11.2020 16:00:00 8,6 -0,2 4 2 - 1030,2 10 0,0
22.11.2020 15:00:00 9,0 -5,0 4 2 S - 10 -
22.11.2020 14:00:00 9,0 -5,0 4 2 - - 10 -
22.11.2020 13:00:00 8,6 -5,7 8 4 SSE 1031,6 10 -
22.11.2020 12:00:00 9,0 -5,0 8 4 NNE - 10 -
22.11.2020 11:00:00 7,0 -6,0 13 7 NE - 10 -
22.11.2020 10:00:00 6,0 -5,4 13 7 N 1032,3 10 0,0
22.11.2020 09:00:00 3,0 -5,0 9 5 N - 10 -
22.11.2020 08:00:00 0,0 -5,0 15 8 NNE - 10 -
22.11.2020 07:00:00 0,2 -5,0 13 7 NNE 1032,5 10 -
22.11.2020 06:00:00 0,0 -5,0 11 6 N - 10 -
22.11.2020 05:00:00 1,0 -5,0 13 7 N - 10 -
22.11.2020 04:00:00 1,6 -5,2 15 8 NNE 1032,7 10 0,0
22.11.2020 03:00:00 2,0 -6,0 13 7 NNE - 10 -
22.11.2020 02:00:00 2,0 -7,0 11 6 N - 10 -
22.11.2020 01:00:00 1,8 -7,0 13 7 NNE 1033,6 10 -
22.11.2020 00:00:00 2,0 -7,0 11 6 NNE - 10 -
21.11.2020 23:00:00 4,0 -7,0 16 9 N - 10 -
21.11.2020 22:00:00 3,4 -6,4 15 8 NNE 1034,4 10 0,0
21.11.2020 21:00:00 4,0 -5,0 13 7 NNE - 10 -
21.11.2020 20:00:00 5,0 -4,0 11 6 N - 10 -
21.11.2020 19:00:00 4,4 -2,5 9 5 NNW 1034,1 10 -
21.11.2020 18:00:00 6,0 -3,0 16 9 NNE - 10 -
21.11.2020 17:00:00 7,0 -1,0 13 7 NE - 10 -
21.11.2020 16:00:00 9,2 -0,8 16 9 E 1033,7 10 0,0
21.11.2020 15:00:00 10,0 -3,0 28 15 E - 10 -
21.11.2020 14:00:00 10,0 -4,0 31 17 ENE - 10 -
21.11.2020 13:00:00 10,6 -5,2 24 13 E 1034,1 28 -
21.11.2020 12:00:00 11,0 -3,0 16 9 ENE - 10 -
21.11.2020 11:00:00 10,0 -2,0 16 9 NNE - 10 -
21.11.2020 10:00:00 8,3 -1,8 15 8 NE 1034,3 10 0,0
21.11.2020 09:00:00 5,0 -3,0 15 8 NNE - 10 -
21.11.2020 08:00:00 4,0 -2,0 9 5 NNE - 10 -
21.11.2020 07:00:00 6,3 0,2 18 10 E 1032,2 10 -
21.11.2020 06:00:00 3,0 -2,0 15 8 NE - 10 -
21.11.2020 05:00:00 6,0 0,0 18 10 ENE - 10 -
21.11.2020 04:00:00 4,7 -1,0 13 7 NNE 1030,6 10 0,0
21.11.2020 03:00:00 5,0 -3,0 18 10 NE - 10 -
21.11.2020 02:00:00 7,0 -2,0 21 11 ENE - 10 -
21.11.2020 01:00:00 8,5 -0,7 24 13 ENE 1029,3 10 -
21.11.2020 00:00:00 8,0 1,0 18 10 ENE - 10 -
20.11.2020 23:00:00 9,0 1,0 24 13 E - 10 -
20.11.2020 22:00:00 9,2 2,5 18 10 E 1028,0 10 0,0
20.11.2020 21:00:00 9,0 4,0 18 10 E - 10 -
20.11.2020 20:00:00 10,0 5,0 16 9 E - 10 -
20.11.2020 19:00:00 9,3 5,2 13 7 E 1025,3 10 -
20.11.2020 18:00:00 10,0 6,0 11 6 E - 10 -
20.11.2020 17:00:00 11,0 4,0 15 8 ENE - 10 -
20.11.2020 16:00:00 12,2 5,4 11 6 ENE 1023,1 10 0,0
20.11.2020 15:00:00 14,0 3,0 13 7 NE - 10 -
20.11.2020 14:00:00 13,0 4,0 9 5 ENE - 10 -
20.11.2020 13:00:00 12,7 5,5 9 5 NE 1023,2 10 -
20.11.2020 12:00:00 12,0 6,0 11 6 N - 10 -
20.11.2020 11:00:00 11,0 8,0 8 4 NW - 10 -
20.11.2020 10:00:00 9,9 8,0 4 2 NW 1023,0 10 0,0
20.11.2020 09:00:00 9,0 7,0 4 2 - - 10 -
20.11.2020 08:00:00 9,0 7,0 9 5 N - 10 -
20.11.2020 07:00:00 9,4 6,8 16 9 N 1021,5 10 -
20.11.2020 06:00:00 9,0 9,0 13 7 N - 10 -
20.11.2020 05:00:00 9,0 9,0 16 9 NE - 10 -
20.11.2020 04:00:00 8,5 8,4 18 10 NNE 1020,6 8 0,0
20.11.2020 03:00:00 8,0 8,0 21 11 NNE - 3,5 -
20.11.2020 02:00:00 8,0 7,0 16 9 NE - 0,6 -
20.11.2020 01:00:00 6,9 6,8 16 9 NNW 1019,6 0,2 -
20.11.2020 00:00:00 8,0 8,0 11 6 ESE - 1,0 -
19.11.2020 23:00:00 8,0 7,0 5 3 NNW - 0,4 -
19.11.2020 22:00:00 7,2 7,1 5 3 SE 1018,8 0,2 0,0
19.11.2020 21:00:00 7,0 7,0 4 2 - - 0,2 -
19.11.2020 20:00:00 7,0 7,0 4 2 SW - 0,2 -
19.11.2020 19:00:00 7,4 7,1 11 6 WSW 1019,7 0,2 -
19.11.2020 18:00:00 8,0 7,0 9 5 SSW - 5 -
19.11.2020 17:00:00 9,0 7,0 5 3 SW - 6 -
19.11.2020 16:00:00 11,1 7,5 4 2 - 1020,8 9 0,0
19.11.2020 15:00:00 11,0 6,0 5 3 SW - 10 -
19.11.2020 14:00:00 11,0 7,0 5 3 SW - 10 -
19.11.2020 13:00:00 10,9 5,6 5 3 S 1022,9 10 -
19.11.2020 12:00:00 10,0 6,0 5 3 SW - 9 -
19.11.2020 11:00:00 9,0 5,0 5 3 SW - 10 -
19.11.2020 10:00:00 6,4 4,2 5 3 WNW 1025,0 10 0,0
19.11.2020 09:00:00 4,0 3,0 5 3 W - 7 -
19.11.2020 08:00:00 2,0 2,0 4 2 W - 7 -
19.11.2020 07:00:00 2,5 2,2 5 3 WNW 1025,2 6 -
19.11.2020 06:00:00 3,0 3,0 8 4 W - 5 -
19.11.2020 05:00:00 4,0 3,0 5 3 W - 3,0 -
19.11.2020 04:00:00 3,9 3,7 8 4 W 1025,7 3,0 0,0
19.11.2020 03:00:00 5,0 4,0 8 4 W - 3,0 -
19.11.2020 02:00:00 5,0 4,0 5 3 W - 3,0 -
19.11.2020 01:00:00 4,9 4,7 9 5 WSW 1027,1 3,0 -
19.11.2020 00:00:00 5,0 5,0 8 4 W - 3,0 -
18.11.2020 23:00:00 6,0 5,0 5 3 W - 6 -
18.11.2020 22:00:00 6,8 5,8 11 6 WSW 1027,8 8 0,0
18.11.2020 21:00:00 8,0 7,0 5 3 W - 10 -
18.11.2020 20:00:00 10,0 6,0 5 3 - - 10 -
18.11.2020 19:00:00 9,2 7,1 8 4 W 1028,0 10 -
18.11.2020 18:00:00 11,0 8,0 8 4 W - 10 -
18.11.2020 17:00:00 14,0 6,0 8 4 WNW - 10 -
18.11.2020 16:00:00 14,7 6,6 9 5 W 1028,0 10 0,0
18.11.2020 15:00:00 16,0 6,0 8 4 W - 10 -
18.11.2020 14:00:00 15,0 7,0 11 6 SSW - 10 -
18.11.2020 13:00:00 15,4 5,7 9 5 SW 1029,3 10 -
18.11.2020 12:00:00 15,0 6,0 5 3 NE - 10 -
18.11.2020 11:00:00 13,0 6,0 5 3 NW - 10 -
18.11.2020 10:00:00 11,4 5,6 9 5 NW 1030,5 10 0,0
18.11.2020 09:00:00 8,0 4,0 4 2 - - 10 -
18.11.2020 08:00:00 5,0 4,0 8 4 N - 10 -
18.11.2020 07:00:00 4,8 3,5 4 2 - 1030,0 10 -
18.11.2020 06:00:00 6,0 4,0 8 4 N - 10 -
18.11.2020 05:00:00 6,0 4,0 5 3 NW - 10 -

tt = temperature
td = dewpoint
ff = wind speed
dd = wind direction
ppp = reduced air pressure
vv = visibility
rr = precipitation

Next stations